FW6831 Weather Reports


Display with metric or nautical units.
time (UTC)temp
F
wind
direction
speed
MPH
gust
MPH
rain 1hr
in
rain 24hr
in
rain mn
in
humidity
%
barometer
mb
20260905065043 78 0 2.0 6.0 0.00 0.00 0.00 70 1016.0
20260905064603 78 193 2.0 6.0 0.00 0.00 0.00 70 1016.0
20260905064044 78 1 1.0 5.0 0.00 0.00 0.00 69 1016.0
20260905063544 79 96 1.0 6.0 0.00 0.00 0.00 69 1016.1
20260905063101 79 188 0.0 6.0 0.00 0.00 0.00 68 1016.0
20260905062545 80 13 1.0 7.0 0.00 0.00 0.00 67 1015.9
20260905062044 80 314 2.0 7.0 0.00 0.00 0.00 67 1015.9
20260905061620 80 108 2.0 7.0 0.00 0.00 0.00 66 1015.8
20260905061043 80 350 2.0 6.0 0.00 0.00 0.00 66 1015.8
20260905060543 81 0 0.0 7.0 0.00 0.00 0.00 66 1015.9
20260905060117 81 124 0.0 7.0 0.00 0.00 0.00 66 1015.9
20260905055543 81 110 2.0 8.0 0.00 0.00 0.00 66 1015.9
20260905055042 81 63 3.0 8.0 0.00 0.00 0.00 65 1015.9
20260905054559 81 96 0.0 7.0 0.00 0.00 0.00 64 1015.9
20260905054044 82 103 3.0 7.0 0.00 0.00 0.00 63 1015.9
20260905053545 82 82 1.0 7.0 0.00 0.00 0.00 63 1015.9
20260905053102 82 354 2.0 10.0 0.00 0.00 0.00 62 1016.0
20260905052547 83 87 1.0 10.0 0.00 0.00 0.00 62 1016.0
20260905052044 83 124 3.0 10.0 0.00 0.00 0.00 61 1016.0
20260905051603 83 123 2.0 6.0 0.00 0.00 0.00 61 1016.0
20260905051043 83 56 2.0 6.0 0.00 0.00 0.00 61 1016.1
20260905050542 83 167 1.0 6.0 0.00 0.00 0.00 60 1016.1
20260905050058 84 75 3.0 6.0 0.00 0.00 0.00 59 1016.1
20260905045542 84 188 2.0 8.0 0.00 0.00 0.00 60 1016.1
20260905045043 83 59 2.0 8.0 0.00 0.00 0.00 59 1016.2
20260905044602 84 92 2.0 8.0 0.00 0.00 0.00 58 1016.2
20260905044043 84 352 2.0 6.0 0.00 0.00 0.00 58 1016.2
20260905043544 84 81 1.0 6.0 0.00 0.00 0.00 58 1016.3
20260905043101 84 230 1.0 10.0 0.00 0.00 0.00 57 1016.3
20260905042543 84 30 2.0 10.0 0.00 0.00 0.00 56 1016.4
20260905042046 85 44 3.0 10.0 0.00 0.00 0.00 56 1016.5
20260905041603 85 125 2.0 6.0 0.00 0.00 0.00 56 1016.5
20260905041043 85 105 1.0 6.0 0.00 0.00 0.00 54 1016.6
20260905040544 87 114 1.0 4.0 0.00 0.00 0.00 51 1016.7
20260905040055 86 301 0.0 5.0 0.00 0.00 0.00 51 1016.8
20260905035545 85 70 2.0 5.0 0.00 0.00 0.00 50 1016.9
20260905035045 85 60 2.0 4.0 0.00 0.00 0.00 50 1017.1
20260905034612 86 296 2.0 4.0 0.00 0.00 0.00 48 1017.1
20260905034043 86 318 1.0 6.0 0.00 0.00 0.00 49 1017.1
20260905033543 85 281 3.0 7.0 0.00 0.00 0.00 48 1017.2
20260905033100 85 53 1.0 7.0 0.00 0.00 0.00 49 1017.3
20260905032542 84 302 2.0 5.0 0.00 0.00 0.00 48 1017.3
20260905032046 84 215 2.0 6.0 0.00 0.00 0.00 49 1017.4
20260905031555 85 0 1.0 6.0 0.00 0.00 0.00 50 1017.6
20260905031044 85 307 1.0 6.0 0.00 0.00 0.00 50 1017.7
20260905030542 85 124 1.0 4.0 0.00 0.00 0.00 51 1017.8
20260905030054 84 243 1.0 3.0 0.00 0.00 0.00 49 1017.9
20260905025544 85 59 1.0 3.0 0.00 0.00 0.00 49 1018.0
20260905025043 85 213 1.0 5.0 0.00 0.00 0.00 52 1018.1
20260905024602 83 0 1.0 5.0 0.00 0.00 0.00 51 1018.2
20260905024043 83 77 0.0 5.0 0.00 0.00 0.00 53 1018.2
20260905023546 82 90 1.0 5.0 0.00 0.00 0.00 56 1018.5
20260905023106 83 250 2.0 5.0 0.00 0.00 0.00 54 1018.5
20260905022542 84 15 1.0 4.0 0.00 0.00 0.00 57 1018.7
20260905022044 83 314 1.0 4.0 0.00 0.00 0.00 58 1018.7
20260905021557 83 244 2.0 4.0 0.00 0.00 0.00 58 1018.8
20260905021045 83 140 1.0 4.0 0.00 0.00 0.00 57 1018.8
20260905020546 83 255 1.0 4.0 0.00 0.00 0.00 60 1019.1
20260905020104 81 36 1.0 4.0 0.00 0.00 0.00 63 1019.1
20260905015543 81 224 2.0 4.0 0.00 0.00 0.00 62 1019.3
20260905015047 81 304 1.0 5.0 0.00 0.00 0.00 67 1019.3
20260905014604 81 112 2.0 6.0 0.00 0.00 0.00 66 1019.5
20260905014043 83 239 1.0 6.0 0.00 0.00 0.00 63 1019.7
20260905013542 82 270 1.0 3.0 0.00 0.00 0.00 64 1019.8
20260905013104 82 27 1.0 3.0 0.00 0.00 0.00 63 1019.9
20260905012545 81 325 1.0 4.0 0.00 0.00 0.00 65 1020.1
20260905012046 80 249 1.0 4.0 0.00 0.00 0.00 68 1020.1
20260905011605 80 319 0.0 6.0 0.00 0.00 0.00 68 1020.2
20260905011042 79 0 0.0 6.0 0.00 0.00 0.00 70 1020.3
20260905010544 78 0 3.0 6.0 0.00 0.00 0.00 70 1020.3
20260905010059 78 318 2.0 5.0 0.00 0.00 0.00 71 1020.4
20260905005544 78 97 1.0 5.0 0.00 0.00 0.00 73 1020.5
20260905005044 78 181 2.0 5.0 0.00 0.00 0.00 72 1020.6
20260905004601 78 195 1.0 3.0 0.00 0.00 0.00 72 1020.8
20260905004043 78 105 0.0 3.0 0.00 0.00 0.00 73 1020.9
20260905003543 77 205 1.0 3.0 0.00 0.00 0.00 75 1020.9
20260905003058 77 65 1.0 2.0 0.00 0.00 0.00 76 1021.0
20260905002544 76 0 0.0 4.0 0.00 0.00 0.00 79 1021.2
20260905002042 75 0 1.0 4.0 0.00 0.00 0.00 80 1021.3
20260905001603 74 186 1.0 5.0 0.00 0.00 0.00 80 1021.3
20260905001043 74 0 1.0 5.0 0.00 0.00 0.00 81 1021.5
20260905000544 73 169 2.0 5.0 0.00 0.00 0.00 82 1021.4
20260905000111 73 194 0.0 5.0 0.00 0.00 0.00 82 1021.5
20260904235546 72 136 1.0 5.0 0.00 0.00 0.00 83 1021.8
20260904235043 72 162 2.0 6.0 0.00 0.00 0.00 84 1021.8
20260904234602 71 49 1.0 6.0 0.00 0.00 0.00 85 1021.9
20260904234043 71 105 3.0 6.0 0.00 0.00 0.00 84 1022.0
20260904233543 71 102 0.0 3.0 0.00 0.00 0.00 84 1021.9
20260904233116 71 154 0.0 3.0 0.00 0.00 0.00 85 1022.1
20260904232543 71 0 0.0 2.0 0.00 0.00 0.00 85 1022.1
20260904232042 70 0 0.0 2.0 0.00 0.00 0.00 87 1022.2
20260904231604 70 0 0.0 3.0 0.00 0.00 0.00 87 1022.1
20260904231043 69 0 1.0 4.0 0.00 0.00 0.00 87 1022.2
20260904230544 69 0 1.0 4.0 0.00 0.00 0.00 87 1022.3
20260904230054 69 0 1.0 4.0 0.00 0.00 0.00 87 1022.2
20260904225542 69 180 0.0 2.0 0.00 0.00 0.00 88 1022.3
20260904225043 69 178 0.0 2.0 0.00 0.00 0.00 89 1022.2
20260904224607 68 0 0.0 2.0 0.00 0.00 0.00 90 1022.2
20260904224043 67 109 0.0 5.0 0.00 0.00 0.00 91 1022.1
20260904223543 67 0 1.0 5.0 0.00 0.00 0.00 92 1022.2
20260904223130 67 174 1.0 5.0 0.00 0.00 0.00 91 1022.1
20260904222543 66 193 0.0 2.0 0.00 0.00 0.00 94 1022.1
20260904222043 65 214 0.0 2.0 0.00 0.00 0.00 94 1022.1
20260904221559 65 188 0.0 2.0 0.00 0.00 0.00 94 1022.2
20260904221043 65 200 1.0 5.0 0.00 0.00 0.00 95 1022.2
20260904220543 65 143 1.0 5.0 0.00 0.00 0.00 95 1022.2
20260904220055 65 172 1.0 3.0 0.00 0.00 0.00 95 1022.2
20260904215543 65 0 0.0 0.0 0.00 0.00 0.00 96 1022.1
20260904215044 64 0 0.0 0.0 0.00 0.00 0.00 96 1022.1
20260904214604 64 0 0.0 0.0 0.00 0.00 0.00 97 1022.0
20260904214043 64 0 0.0 0.0 0.00 0.00 0.00 97 1022.1
20260904213548 63 0 0.0 0.0 0.00 0.00 0.00 97 1022.1
20260904213058 63 0 0.0 0.0 0.00 0.00 0.00 97 1022.1
20260904212543 63 0 0.0 0.0 0.00 0.00 0.00 97 1022.0
20260904212043 63 0 0.0 0.0 0.00 0.00 0.00 97 1022.0
20260904211603 62 0 0.0 0.0 0.00 0.00 0.00 97 1021.9
20260904211044 62 0 0.0 0.0 0.00 0.00 0.00 97 1021.8
20260904210542 62 0 0.0 0.0 0.00 0.00 0.00 97 1021.8
20260904210124 62 0 0.0 0.0 0.00 0.00 0.00 97 1021.8
20260904205545 62 0 0.0 0.0 0.00 0.00 0.00 97 1021.7
20260904205042 62 0 0.0 0.0 0.00 0.00 0.00 97 1021.7
20260904204603 62 0 0.0 0.0 0.00 0.00 0.00 97 1021.6
20260904204043 62 0 0.0 0.0 0.00 0.00 0.00 98 1021.6
20260904203544 62 0 0.0 0.0 0.00 0.00 0.00 98 1021.6
20260904203105 61 0 0.0 0.0 0.00 0.00 0.00 98 1021.5
20260904202545 61 0 0.0 0.0 0.00 0.00 0.00 97 1021.5
20260904202044 61 0 0.0 0.0 0.00 0.00 0.00 97 1021.4
20260904201556 61 0 0.0 0.0 0.00 0.00 0.00 97 1021.3
20260904201043 61 0 0.0 0.0 0.00 0.00 0.00 97 1021.3
20260904200543 61 0 0.0 0.0 0.00 0.00 0.00 97 1021.3
20260904200106 61 0 0.0 0.0 0.00 0.00 0.00 97 1021.2
20260904195545 61 0 0.0 0.0 0.00 0.00 0.00 97 1021.3
20260904195044 60 0 0.0 0.0 0.00 0.00 0.00 97 1021.2
20260904194558 61 0 0.0 0.0 0.00 0.00 0.00 97 1021.1
20260904194041 61 0 0.0 0.0 0.00 0.00 0.00 97 1021.1
20260904193544 61 0 0.0 0.0 0.00 0.00 0.00 97 1021.1
20260904193113 61 0 0.0 0.0 0.00 0.00 0.00 97 1021.0
20260904192544 60 0 0.0 0.0 0.00 0.00 0.00 97 1021.1
20260904192044 60 0 0.0 0.0 0.00 0.00 0.00 97 1021.1
20260904191601 60 0 0.0 0.0 0.00 0.00 0.00 97 1021.0
20260904191044 60 0 0.0 0.0 0.00 0.00 0.00 97 1021.0
20260904190542 60 0 0.0 0.0 0.00 0.00 0.00 97 1021.0
20260904190058 60 0 0.0 0.0 0.00 0.00 0.00 97 1021.0
20260904185544 60 0 0.0 0.0 0.00 0.00 0.00 97 1020.9
20260904185043 60 0 0.0 0.0 0.00 0.00 0.00 97 1020.9
20260904184555 60 0 0.0 0.0 0.00 0.00 0.00 97 1021.0
20260904184046 60 0 0.0 0.0 0.00 0.00 0.00 97 1021.0
20260904183544 60 0 0.0 0.0 0.00 0.00 0.00 97 1021.0
20260904183053 60 0 0.0 0.0 0.00 0.00 0.00 97 1020.9
20260904182543 60 0 0.0 0.0 0.00 0.00 0.00 97 1021.0
20260904182044 60 0 0.0 0.0 0.00 0.00 0.00 97 1020.9
20260904181602 60 0 0.0 0.0 0.00 0.00 0.00 97 1020.9
20260904181043 60 0 0.0 0.0 0.00 0.00 0.00 97 1020.9
20260904180547 60 0 0.0 0.0 0.00 0.00 0.00 97 1020.9
20260904180101 60 0 0.0 0.0 0.00 0.00 0.00 97 1020.9
20260904175544 60 0 0.0 0.0 0.00 0.00 0.00 97 1020.9
20260904175045 60 0 0.0 0.0 0.00 0.00 0.00 97 1020.8
20260904174606 60 0 0.0 0.0 0.00 0.00 0.00 97 1020.8
20260904174044 60 0 0.0 0.0 0.00 0.00 0.00 97 1020.9
20260904173545 59 0 0.0 0.0 0.00 0.00 0.00 97 1020.9
20260904173107 60 0 0.0 0.0 0.00 0.00 0.00 97 1020.9
20260904172545 60 0 0.0 0.0 0.00 0.00 0.00 97 1020.9
20260904172043 59 0 0.0 0.0 0.00 0.00 0.00 97 1020.9
20260904171602 59 0 0.0 0.0 0.00 0.00 0.00 97 1020.9
20260904171042 59 0 0.0 0.0 0.00 0.00 0.00 97 1021.0
20260904170544 59 0 0.0 0.0 0.00 0.00 0.00 97 1020.9
20260904165546 59 0 0.0 0.0 0.00 0.00 0.00 97 1020.9
20260904165049 59 0 0.0 0.0 0.00 0.00 0.00 97 1020.8
20260904164552 59 0 0.0 0.0 0.00 0.00 0.00 97 1020.7
20260904164043 60 0 0.0 0.0 0.00 0.00 0.00 97 1020.9
20260904163546 60 0 0.0 0.0 0.00 0.00 0.00 97 1020.8
20260904163105 60 0 0.0 0.0 0.00 0.00 0.00 97 1020.9
20260904162545 60 0 0.0 0.0 0.00 0.00 0.00 97 1020.9
20260904162044 60 0 0.0 0.0 0.00 0.00 0.00 97 1020.9
20260904161607 60 0 0.0 0.0 0.00 0.00 0.00 97 1020.8
20260904161045 60 0 0.0 0.0 0.00 0.00 0.00 96 1020.9
20260904160545 60 0 0.0 0.0 0.00 0.00 0.00 97 1020.9
20260904160100 60 0 0.0 0.0 0.00 0.00 0.00 97 1020.9
20260904155546 60 0 0.0 0.0 0.00 0.00 0.00 97 1021.0
20260904155044 60 0 0.0 0.0 0.00 0.00 0.00 97 1020.9
20260904154600 60 0 0.0 0.0 0.00 0.00 0.00 97 1020.9
20260904154044 60 0 0.0 0.0 0.00 0.00 0.00 96 1020.9
20260904153544 60 0 0.0 0.0 0.00 0.00 0.00 96 1021.0
20260904153101 60 0 0.0 0.0 0.00 0.00 0.00 96 1020.9
20260904152544 60 0 0.0 0.0 0.00 0.00 0.00 96 1020.9
20260904152043 60 0 0.0 0.0 0.00 0.00 0.00 97 1021.0
20260904151601 60 0 0.0 0.0 0.00 0.00 0.00 97 1021.0
20260904151045 61 0 0.0 0.0 0.00 0.00 0.00 97 1021.0
20260904150545 61 0 0.0 0.0 0.00 0.00 0.00 97 1021.0
20260904150105 60 0 0.0 0.0 0.00 0.00 0.00 96 1021.0
20260904145545 60 0 0.0 0.0 0.00 0.00 0.00 96 1021.1
20260904145045 60 0 0.0 0.0 0.00 0.00 0.00 96 1021.0
20260904144611 61 0 0.0 0.0 0.00 0.00 0.00 96 1021.0
20260904144042 61 0 0.0 0.0 0.00 0.00 0.00 97 1021.0
20260904143542 61 0 0.0 0.0 0.00 0.00 0.00 96 1020.9
20260904143103 60 0 0.0 0.0 0.00 0.00 0.00 96 1021.0
20260904142544 61 0 0.0 0.0 0.00 0.00 0.00 96 1021.0
20260904142043 61 0 0.0 0.0 0.00 0.00 0.00 96 1021.0
20260904141603 61 0 0.0 0.0 0.00 0.00 0.00 96 1021.0
20260904141045 61 0 0.0 0.0 0.00 0.00 0.00 96 1020.9
20260904140546 61 0 0.0 0.0 0.00 0.00 0.00 96 1020.9
20260904140055 60 0 0.0 0.0 0.00 0.00 0.00 95 1021.0
20260904135543 61 0 0.0 0.0 0.00 0.00 0.00 95 1020.8
20260904135046 61 0 0.0 0.0 0.00 0.00 0.00 95 1020.8
20260904134604 61 0 0.0 0.0 0.00 0.00 0.00 95 1020.8
20260904134043 61 0 0.0 0.0 0.00 0.00 0.00 95 1020.8
20260904133542 61 0 0.0 0.0 0.00 0.00 0.00 95 1020.7
20260904133101 61 0 0.0 0.0 0.00 0.00 0.00 95 1020.7
20260904132543 62 0 0.0 0.0 0.00 0.00 0.00 95 1020.7
20260904132042 62 0 0.0 0.0 0.00 0.00 0.00 95 1020.6
20260904131552 62 0 0.0 0.0 0.00 0.00 0.00 95 1020.7
20260904131042 62 0 0.0 0.0 0.00 0.00 0.00 95 1020.8
20260904130542 62 0 0.0 0.0 0.00 0.00 0.00 95 1020.8
20260904130101 63 0 0.0 0.0 0.00 0.00 0.00 95 1020.9
20260904125542 63 0 0.0 0.0 0.00 0.00 0.00 95 1020.8
20260904125051 63 0 0.0 0.0 0.00 0.00 0.00 95 1020.9
20260904124606 63 0 0.0 0.0 0.00 0.00 0.00 95 1021.0
20260904124047 63 0 0.0 0.0 0.00 0.00 0.00 94 1021.0
20260904123546 63 0 0.0 0.0 0.00 0.00 0.00 95 1020.8
20260904123056 63 0 0.0 1.0 0.00 0.00 0.00 94 1020.9
20260904122543 63 0 0.0 1.0 0.00 0.00 0.00 94 1021.0
20260904122045 63 0 0.0 0.0 0.00 0.00 0.00 94 1021.0
20260904121558 63 0 0.0 0.0 0.00 0.00 0.00 94 1021.0
20260904121046 63 0 0.0 0.0 0.00 0.00 0.00 94 1021.1
20260904120542 63 0 0.0 0.0 0.00 0.00 0.00 93 1021.0
20260904120057 63 0 0.0 0.0 0.00 0.00 0.00 93 1021.0
20260904115542 63 0 0.0 0.0 0.00 0.00 0.00 93 1021.0
20260904115042 63 0 0.0 1.0 0.00 0.00 0.00 92 1021.1
20260904114558 63 313 0.0 1.0 0.00 0.00 0.00 92 1021.1
20260904114042 64 312 1.0 1.0 0.00 0.00 0.00 92 1021.1
20260904113548 64 312 0.0 1.0 0.00 0.00 0.00 91 1021.1
20260904113055 64 314 0.0 1.0 0.00 0.00 0.00 91 1021.0
20260904112544 64 314 0.0 1.0 0.00 0.00 0.00 91 1021.0
20260904112045 65 0 0.0 1.0 0.00 0.00 0.00 92 1020.9
20260904111554 65 0 0.0 1.0 0.00 0.00 0.00 92 1020.9
20260904111044 65 0 0.0 1.0 0.00 0.00 0.00 91 1020.9
20260904110544 65 0 0.0 1.0 0.00 0.00 0.00 91 1020.8
20260904105545 66 0 0.0 1.0 0.00 0.00 0.00 93 1020.7
20260904105043 66 0 0.0 1.0 0.00 0.00 0.00 91 1020.6
20260904104605 66 0 0.0 0.0 0.00 0.00 0.00 92 1020.5
20260904104043 65 0 0.0 0.0 0.00 0.00 0.00 90 1020.5
20260904103544 66 0 0.0 0.0 0.00 0.00 0.00 90 1020.6
20260904103110 66 0 0.0 1.0 0.00 0.00 0.00 91 1020.5
20260904102545 66 0 0.0 1.0 0.00 0.00 0.00 90 1020.3
20260904102045 66 0 0.0 0.0 0.00 0.00 0.00 89 1020.3
20260904101601 66 0 0.0 0.0 0.00 0.00 0.00 90 1020.3
20260904101045 66 0 0.0 0.0 0.00 0.00 0.00 90 1020.3
20260904100545 66 0 0.0 0.0 0.00 0.00 0.00 89 1020.2
20260904100126 67 0 0.0 0.0 0.00 0.00 0.00 88 1020.2
20260904095548 67 0 0.0 0.0 0.00 0.00 0.00 88 1020.1
20260904095044 67 0 0.0 0.0 0.00 0.00 0.00 88 1020.1
20260904094556 68 0 0.0 0.0 0.00 0.00 0.00 87 1020.1
20260904094044 68 0 0.0 0.0 0.00 0.00 0.00 88 1020.0
20260904093545 68 0 0.0 1.0 0.00 0.00 0.00 87 1020.0
20260904093107 68 0 0.0 1.0 0.00 0.00 0.00 87 1019.9
20260904092544 69 0 0.0 1.0 0.00 0.00 0.00 87 1019.9
20260904092048 69 0 0.0 3.0 0.00 0.00 0.00 86 1019.8
20260904091601 69 0 0.0 3.0 0.00 0.00 0.00 86 1019.8
20260904091045 69 0 0.0 1.0 0.00 0.00 0.00 85 1019.8
20260904090543 69 0 0.0 1.0 0.00 0.00 0.00 85 1019.7
20260904090055 69 0 0.0 1.0 0.00 0.00 0.00 85 1019.6
20260904085543 69 0 0.0 1.0 0.00 0.00 0.00 85 1019.7
20260904085044 69 0 0.0 1.0 0.00 0.00 0.00 84 1019.6
20260904084609 70 0 0.0 0.0 0.00 0.00 0.00 83 1019.7
20260904084044 70 0 0.0 0.0 0.00 0.00 0.00 83 1019.6
20260904083544 70 0 0.0 0.0 0.00 0.00 0.00 82 1019.6
20260904083102 71 0 0.0 0.0 0.00 0.00 0.00 82 1019.5
20260904082544 71 0 0.0 0.0 0.00 0.00 0.00 82 1019.5
20260904082044 71 0 0.0 0.0 0.00 0.00 0.00 81 1019.5
20260904081600 71 0 0.0 6.0 0.00 0.00 0.00 80 1019.4
20260904081043 72 0 0.0 6.0 0.00 0.00 0.00 80 1019.3
20260904080544 72 51 1.0 6.0 0.00 0.00 0.00 80 1019.3
20260904080056 72 0 0.0 7.0 0.00 0.00 0.00 79 1019.2
20260904075543 73 0 1.0 7.0 0.00 0.00 0.00 79 1019.2
20260904075043 73 69 1.0 6.0 0.00 0.00 0.00 78 1019.1
20260904074610 73 325 0.0 1.0 0.00 0.00 0.00 77 1018.8
20260904074044 73 0 0.0 1.0 0.00 0.00 0.00 76 1018.7
20260904073544 73 0 0.0 4.0 0.00 0.00 0.00 75 1018.7
20260904073058 74 0 0.0 4.0 0.00 0.00 0.00 75 1018.6
20260904072546 74 0 0.0 4.0 0.00 0.00 0.00 74 1018.5
20260904072044 75 0 0.0 1.0 0.00 0.00 0.00 73 1018.5
20260904071626 75 0 0.0 3.0 0.00 0.00 0.00 72 1018.5
20260904071044 75 0 0.0 10.0 0.00 0.00 0.00 72 1018.4
20260904070544 75 0 1.0 10.0 0.00 0.00 0.00 71 1018.1
20260904070109 76 0 0.0 9.0 0.00 0.00 0.00 70 1018.1
20260904065543 76 0 1.0 9.0 0.00 0.00 0.00 69 1018.0